DW9936 Weather Reports


time (UTC)temp
F
wind
direction
speed
knots
gust
knots
rain 1hr
in
rain 24hr
in
rain mn
in
humidity
%
barometer
mb
20260507163023 68 331 0.9 4.3 0.00 0.00 0.00 45 1011.6
20260507161521 68 182 0.9 4.3 0.00 0.00 0.00 44 1011.5
20260507160020 68 159 0.0 5.2 0.00 0.00 0.00 43 1011.5
20260507154521 68 360 0.0 4.3 0.00 0.00 0.00 43 1011.5
20260507153024 69 30 0.0 3.5 0.00 0.00 0.00 42 1011.4
20260507151518 69 300 0.0 4.3 0.00 0.00 0.00 41 1011.2
20260507150018 70 300 0.0 3.5 0.00 0.00 0.00 41 1011.2
20260507144519 71 342 0.0 4.3 0.00 0.00 0.00 39 1011.1
20260507143018 73 281 0.0 7.8 0.00 0.00 0.00 37 1011.0
20260507141516 74 140 0.0 2.6 0.00 0.00 0.00 36 1010.8
20260507140032 74 315 0.9 7.8 0.00 0.00 0.00 36 1010.8
20260507134516 74 139 1.7 7.8 0.00 0.00 0.00 36 1010.9
20260507133015 73 355 0.9 7.8 0.00 0.00 0.00 37 1011.0
20260507131522 72 318 1.7 7.0 0.00 0.00 0.00 38 1011.2
20260507130014 73 191 0.9 7.8 0.00 0.00 0.00 39 1011.2
20260507124517 75 316 0.9 5.2 0.00 0.00 0.00 36 1011.2
20260507123010 74 38 0.0 8.7 0.00 0.00 0.00 36 1011.2
20260507121509 74 136 0.0 2.6 0.00 0.00 0.00 38 1011.4
20260507120008 72 278 0.0 4.3 0.00 0.00 0.00 37 1011.4
20260507114505 72 140 0.0 9.6 0.00 0.00 0.00 38 1011.7
20260507113005 72 182 0.0 7.0 0.00 0.00 0.00 41 1011.7
20260507111501 71 200 0.9 5.2 0.00 0.00 0.00 41 1011.9
20260507110059 70 20 1.7 7.8 0.00 0.00 0.00 43 1011.9
20260507104606 69 208 0.0 7.8 0.00 0.00 0.00 47 1012.1
20260507103054 68 192 0.9 7.8 0.00 0.00 0.00 46 1012.2
20260507101555 69 23 0.0 3.5 0.00 0.00 0.00 47 1012.1
20260507100056 68 328 0.0 3.5 0.00 0.00 0.00 50 1012.3
20260507094550 67 236 0.9 2.6 0.00 0.00 0.00 49 1012.3
20260507093048 66 214 0.9 3.5 0.00 0.00 0.00 51 1012.3
20260507091549 66 254 0.0 3.5 0.00 0.00 0.00 50 1012.2
20260507090046 66 253 0.0 4.3 0.00 0.00 0.00 49 1012.1
20260507084555 66 219 0.9 4.3 0.00 0.00 0.00 48 1012.0
20260507083042 67 360 0.0 3.5 0.00 0.00 0.00 52 1011.9
20260507081539 65 192 0.0 5.2 0.00 0.00 0.00 53 1011.9
20260507080036 64 321 0.0 2.6 0.00 0.00 0.00 55 1011.8
20260507074535 63 336 0.0 4.3 0.00 0.00 0.00 56 1011.7
20260507073033 63 191 0.0 2.6 0.00 0.00 0.00 57 1011.7
20260507071536 62 178 0.0 6.1 0.00 0.00 0.00 58 1011.6
20260507070030 62 313 0.0 2.6 0.00 0.00 0.00 58 1011.5
20260507064533 62 345 0.0 4.3 0.00 0.00 0.00 59 1011.5
20260507063029 61 239 0.0 3.5 0.00 0.00 0.00 61 1011.4
20260507061535 60 216 0.0 3.5 0.00 0.00 0.00 62 1011.4
20260507060035 60 252 0.0 5.2 0.00 0.00 0.00 65 1011.3
20260507054535 58 241 0.0 2.6 0.00 0.00 0.00 68 1011.2
20260507053022 57 336 0.0 1.7 0.00 0.00 0.00 71 1011.0
20260507051519 57 310 0.0 2.6 0.00 0.00 0.00 71 1011.0
20260507050036 57 275 0.0 0.0 0.00 0.00 0.00 73 1010.8
20260507044520 56 219 0.0 0.9 0.00 0.00 0.00 74 1010.7
20260507043010 56 214 0.0 1.7 0.00 0.00 0.00 74 1010.5
20260507041508 56 281 0.0 0.9 0.00 0.00 0.00 74 1010.2
20260507040006 56 277 0.0 0.0 0.00 0.00 0.00 74 1010.1
20260507034505 57 219 0.0 0.9 0.00 0.00 0.00 73 1010.0
20260507033001 57 232 0.0 2.6 0.00 0.00 0.00 73 1009.9
20260507031558 57 107 0.0 2.6 0.00 0.00 0.00 72 1009.7
20260507030056 57 216 0.0 2.6 0.00 0.00 0.00 72 1009.5
20260507024554 58 355 0.0 1.7 0.00 0.00 0.00 72 1009.4
20260507023051 58 206 0.0 0.9 0.00 0.00 0.00 72 1009.1
20260507021558 58 248 0.0 3.5 0.00 0.00 0.00 72 1009.1
20260507020048 58 277 0.0 3.5 0.00 0.00 0.00 71 1009.0
20260507014547 58 207 0.0 1.7 0.00 0.00 0.00 72 1008.8
20260507013044 59 164 0.0 4.3 0.00 0.00 0.00 71 1008.7
20260507011545 59 109 0.0 2.6 0.00 0.00 0.00 71 1008.5
20260507010045 59 182 0.0 5.2 0.00 0.00 0.00 71 1008.5
20260507004537 60 238 0.0 3.5 0.00 0.00 0.00 70 1008.4
20260507003035 61 213 0.0 4.3 0.00 0.00 0.00 69 1008.3
20260507001534 61 282 0.0 1.7 0.00 0.00 0.00 68 1008.2
20260507000034 62 332 0.0 0.0 0.00 0.00 0.00 67 1007.8
20260506234527 62 332 0.0 0.0 0.00 0.00 0.00 68 1007.7
20260506233027 62 332 0.0 3.5 0.00 0.00 0.00 67 1007.5
20260506231527 63 336 0.0 0.9 0.00 0.00 0.00 68 1007.5
20260506230021 63 227 0.9 4.3 0.00 0.00 0.00 67 1007.3
20260506224517 63 351 0.0 1.7 0.00 0.00 0.00 64 1006.7
20260506223017 64 309 0.0 4.3 0.00 0.00 0.00 62 1006.7
20260506221513 64 242 0.0 1.7 0.00 0.00 0.00 59 1006.4
20260506220017 65 315 0.0 3.5 0.00 0.00 0.00 58 1005.9
20260506214509 65 313 0.0 5.2 0.00 0.00 0.00 57 1005.5
20260506213007 66 334 0.9 7.8 0.00 0.00 0.00 56 1005.2
20260506211506 67 355 1.7 9.6 0.00 0.00 0.00 54 1004.8
20260506210006 67 279 0.9 4.3 0.00 0.00 0.00 50 1004.5
20260506204505 67 207 0.0 0.9 0.00 0.00 0.00 51 1004.2
20260506203016 68 311 0.0 0.0 0.00 0.00 0.00 51 1004.0
20260506201508 68 317 0.0 0.0 0.00 0.00 0.00 50 1003.8
20260506200005 69 317 0.0 0.0 0.00 0.00 0.00 50 1003.6
20260506194505 69 237 0.0 0.0 0.00 0.00 0.00 49 1003.4
20260506193004 70 232 0.0 0.9 0.00 0.00 0.00 48 1003.1
20260506191506 71 111 0.0 0.9 0.00 0.00 0.00 46 1002.9
20260506190006 71 104 0.0 2.6 0.00 0.00 0.00 45 1002.5
20260506184502 72 166 0.0 1.7 0.00 0.00 0.00 45 1002.4
20260506183002 72 254 0.0 2.6 0.00 0.00 0.00 44 1002.3
20260506181502 73 5 0.0 2.6 0.00 0.00 0.00 43 1002.0
20260506180003 74 82 0.0 1.7 0.00 0.00 0.00 42 1001.7
20260506174604 75 271 0.0 3.5 0.00 0.00 0.00 41 1001.7
20260506173115 75 211 0.0 3.5 0.00 0.00 0.00 39 1001.5
20260506171601 76 250 0.9 6.1 0.00 0.00 0.00 38 1001.6
20260506170100 77 178 0.0 6.1 0.00 0.00 0.00 36 1001.6
20260506164558 77 216 0.0 4.3 0.00 0.00 0.00 35 1001.7